Regional Weather Roundup
Issued by NWS

Home | Current Version | Previous Version | Text Only | Print | Product List | Glossary On
Versions: 1 2 3 4 5 6 7 8 9 10 11 12 13 14 15 16 17 18 19 20 21 22 23 24 25 26 27 28 29 30 31 32 33 34 35 36 37 38 39 40 41 42 43 44 45 46 47 48 49 50
000
ASUS43 KDMX 201501
RWRIA

WEATHER ROUNDUP FOR IOWA
NATIONAL WEATHER SERVICE DES MOINES IA
900 AM CST MON FEB 20 2017

NOTE: "FAIR" INDICATES FEW OR NO CLOUDS BELOW 12,000 FEET WITH NO
SIGNIFICANT WEATHER AND/OR OBSTRUCTIONS TO VISIBILITY.

* - THESE STATIONS ARE NOT NWS STATIONS...THUS NOT UNDER NWS
QUALITY CONTROL.  THEY ALSO DO NOT REPORT WEATHER SUCH
AS PRECIPITATION OR FOG.

IAZ001>003-012>014-020>022-031>034-043>046-201600-
   NORTHWEST IOWA

CITY           SKY/WX    TMP DP  RH WIND       PRES   REMARKS
CARROLL *      DRIZZLE   54  54 100 S6        29.77F
CHEROKEE *     RAIN      54  54 100 S13       29.74F
DENISON *      CLOUDY    57  57 100 S12G18    29.74S FOG
LE MARS *      CLOUDY    55  55 100 SE14G21   29.71F FOG
SHELDON *      HVY RAIN  52  52 100 S17       29.71S VSB 3/4
SIOUX CITY     CLOUDY    57  56  96 S15       29.71F FOG
SPENCER        LGT RAIN  52  52 100 S15       29.75F FOG
STORM LAKE *   FOG       52  52 100 S10       29.76S VSB 3/4
$$

IAZ055>058-069>071-079>083-090>094-201600-
   SOUTHWEST IOWA

CITY           SKY/WX    TMP DP  RH WIND       PRES   REMARKS
ATLANTIC *     CLOUDY    57  55  94 S9        29.79S FOG
CLARINDA *     CLOUDY    59  59 100 S9G15       N/A  FOG
COUNCIL BLFS * CLOUDY    57  57 100 S13       29.76F
CRESTON *      CLOUDY    57  57 100 S12       29.82F FOG
HARLAN  *      CLOUDY    57  57 100 S9        29.80S FOG
LAMONI         CLOUDY    59  54  83 S10       29.83F
RED OAK *      LGT RAIN  57  57 100 S7        29.79S
SHENANDOAH *   CLOUDY    59  57  94 S9        29.79S FOG
$$

IAZ047>049-059>061-072>074-084-201600-
   CENTRAL IOWA

CITY           SKY/WX    TMP DP  RH WIND       PRES   REMARKS
AMES           RAIN      52  52 100 SE9       29.83F FOG
ANKENY *       CLOUDY    57  55  94 S7        29.84F
BOONE *        LGT RAIN  52  52 100 SE16      29.80F VSB 1
CHARITON *     CLOUDY    59  55  88 SE14      29.84F
DES MOINES     CLOUDY    60  55  83 S10       29.83F
GRINNELL*      CLOUDY    55  51  87 SE14      29.88F
KNOXVILLE *    CLOUDY    61  54  77 S15G22    29.83F
MARSHALLTOWN   CLOUDY    51  50  96 SE14      29.85F FOG
NEWTON *       CLOUDY    55  52  88 SE12      29.84F
PELLA *        CLOUDY    59  53  80 SE12      29.86F
PERRY *        DRIZZLE   56  55  97 SE15      29.80F
$$

IAZ004>006-015-016-023>025-035-036-201600-
   NORTH CENTRAL IOWA

CITY           SKY/WX    TMP DP  RH WIND       PRES   REMARKS
ALGONA *       CLOUDY    52  52 100 SE16G22   29.78F FOG
CLARION *      CLOUDY    52  52 100 SE16G22   29.81F FOG
ESTHERVILLE    LGT RAIN  49  49 100 S16       29.76S FOG
FORT DODGE *   CLOUDY    54  50  87 SE7       29.80F
MASON CITY     LGT RAIN  47  46  97 SE12      29.84F FOG
FOREST CITY *  RAIN      48  48 100 SE15      29.80F
IOWA FALLS *   RAIN      51  49  96 SE12      29.86S
$$

IAZ007>011-017>019-026>030-037>042-050>054-066-201600-
   NORTHEAST IOWA

CITY           SKY/WX    TMP DP  RH WIND       PRES   REMARKS
CEDAR RAPIDS   CLOUDY    53  52  96 SE13      29.91F FOG
CHARLES CITY * LGT RAIN  48  48 100 SE14      29.89R
CLINTON *      FOG       50  50 100 SE17      30.02S VSB 1/4
DECORAH *      CLOUDY    48  46  93 SE12G22   29.90F FOG
DUBUQUE        FOG       48  48 100 SE21G26   29.98S VSB 1/4
MONTICELLO *   FOG       50  48  93 SE16G23   29.96F VSB 1
OELWEIN *      CLOUDY    48  48 100 SE18      29.90F FOG
WATERLOO       CLOUDY    51  47  86 SE8       29.88F FOG
$$

IAZ064-065-067-068-078-201600-
   EAST CENTRAL IOWA

CITY           SKY/WX    TMP DP  RH WIND       PRES   REMARKS
DAVENPORT      CLOUDY    52  50  93 SE21G26   30.00F FOG
IOWA CITY      CLOUDY    53  50  89 SE10      29.96F FOG
MUSCATINE *    CLOUDY    54  52  94 SE13G18   29.98F FOG
QUAD CITIES    CLOUDY    53  49  86 SE12      30.01S FOG
$$

IAZ062-063-075>077-085>089-095>099-201600-
   SOUTHEAST IOWA

CITY           SKY/WX    TMP DP  RH WIND       PRES   REMARKS
BURLINGTON     PTSUNNY   54  52  93 SE13      29.97F FOG
FAIRFIELD *    MOSUNNY   57  52  82 SE16G23   29.91F
KEOKUK *       MOSUNNY   55  52  88 SE12      29.95F
OTTUMWA        PTSUNNY   60  55  83 S21G26    29.88F
WASHINGTON *   CLOUDY    55  54  94 SE18      29.94F FOG
$$

ABBREVIATIONS USED IN REMARKS
   TC - TEMPERATURES IN CELSIUS
  WCI - WIND CHILL INDEX
   HX - HEAT INDEX
  VSB - VISIBILITY
$$





USA.gov is the U.S. government's official web portal to all federal, state and local government web resources and services.